This is the latest recevied weather packets stored in our database for station/object W7PLC. If no packets are shown the sender has not sent any weather packets the latest 10 day(s).
| Time | Temp. | Humidity | Pressure | Rain* | Wind** | Luminosity | Snow |
|---|---|---|---|---|---|---|---|
| 1777909604 | 17.78° C | 72% | 1009.4 hPa | 0 mm | - | 263 W/m² | - |
| 1777909301 | 17.22° C | 75% | 1009.4 hPa | 0 mm | - | 280 W/m² | - |
| 1777908999 | 16.67° C | 76% | 1009.4 hPa | 0 mm | - | 252 W/m² | - |
| 1777908697 | 16.67° C | 76% | 1009.4 hPa | 0 mm | - | 265 W/m² | - |
| 1777908393 | 16.11° C | 79% | 1009.2 hPa | 0 mm | - | 233 W/m² | - |
| 1777908090 | 15.56° C | 79% | 1009.5 hPa | 0 mm | - | 38 W/m² | - |
| 1777907786 | 15° C | 83% | 1009.2 hPa | 0 mm | - | 33 W/m² | - |
| 1777907481 | 15° C | 84% | 1009.3 hPa | 0 mm | - | 30 W/m² | - |
| 1777907178 | 14.44° C | 84% | 1009.2 hPa | 0 mm | - | 29 W/m² | - |
| 1777906875 | 14.44° C | 85% | 1009 hPa | 0 mm | - | 28 W/m² | - |
| 1777906573 | 13.89° C | 86% | 1009.2 hPa | 0 mm | - | 28 W/m² | - |
| 1777906267 | 13.89° C | 87% | 1009.3 hPa | 0 mm | - | 27 W/m² | - |
| 1777905965 | 13.33° C | 88% | 1009.2 hPa | 0 mm | - | 27 W/m² | - |
| 1777905661 | 13.33° C | 88% | 1009 hPa | 0 mm | - | 27 W/m² | - |
| 1777905358 | 12.78° C | 89% | 1009 hPa | 0 mm | - | 26 W/m² | - |
| 1777905056 | 12.22° C | 90% | 1009.3 hPa | 0 mm | - | 26 W/m² | - |
| 1777904753 | 12.22° C | 91% | 1009 hPa | 0 mm | - | 25 W/m² | - |
| 1777904450 | 12.22° C | 91% | 1008.9 hPa | 0 mm | - | 24 W/m² | - |
| 1777904147 | 11.67° C | 91% | 1009.2 hPa | 0 mm | - | 23 W/m² | - |
| 1777903844 | 11.11° C | 91% | 1009.2 hPa | 0 mm | - | 22 W/m² | - |
| 1777903540 | 11.11° C | 91% | 1008.8 hPa | 0 mm | - | 21 W/m² | - |
| 1777903237 | 11.11° C | 91% | 1008.7 hPa | 0 mm | - | 19 W/m² | - |
| 1777902933 | 11.11° C | 91% | 1008.7 hPa | 0 mm | - | 17 W/m² | - |
| 1777902630 | 10.56° C | 92% | 1008.6 hPa | 0 mm | - | 16 W/m² | - |
| 1777902327 | 10.56° C | 92% | 1008.5 hPa | 0 mm | - | 16 W/m² | - |
* Rain latest hour (hover to see other rain measurements)
** Current wind speed in m/s (hover to see current wind gust speed)